SCP
3 3 4 3 2 2 2 1 0 0 0 0 0 1 0 0 1 0 0 0 0 0 0 0 0 0 0 0 0 0 0 0 0 0 0 0 0 0
2 2 2 3 2 2 2 1 1 0 0 0 0 0 0 0 0 0 0 0 0 0 0 0 0 0 0 0 0 0 0 0 0 0 0 0 0 0
2 1 1 1 2 2 2 2 1 0 0 0 0 0 0 0 0 0 0 0 0 0 0 0 0 0 0 0 0 0 0 0 0 0 0 0 0 0
1 2 1 2 1 2 1 0 0 0 0 0 0 0 0 0 0 0 0 0 0 0 0 0 0 0 0 0 0 0 0 0 0 0 0 0 0 0
1 2 1 1 1 1 1 0 0 0 0 0 0 0 0 0 0 0 0 0 0 0 0 0 0 0 0 0 0 0 0 0 0 0 0 0 0 0
1 1 1 0 0 0 0 0 0 0 0 0 0 0 0 0 0 0 0 0 0 0 0 0 0 0 0 0 0 0 0 0 0 -0 0 -0 0 0
1 0 0 0 0 0 0 0 0 0 0 0 0 0 0 0 0 0 0 0 -0 -0 0 -0 0 0 0 0 -0 0 0 -0 -0 -0 -0 -0 0 0
0 0 0 0 0 0 0 -0 0 0 0 0 0 0 0 0 0 0 0 0 -0 -0 0 0 0 0 -0 0 0 0 0 -0 -0 -0 0 0 0 0
0 0 0 0 0 0 0 -0 0 0 0 0 0 0 0 0 -0 0 -0 -0 -0 0 0 0 0 0 0 0 0 0 0 -0 -0 -0 -0 -0 -0 -0
0 0 0 0 -0 0 0 0 0 0 -0 -0 0 0 0 -0 0 0 -0 -0 0 0 0 0 0 0 0 -0 -0 -0 -0 -0 -0 -0 -0 -0 -0 -0
0 0 0 0 0 0 0 0 0 0 0 0 0 0 0 0 0 0 0 0 0 0 0 0 0 0 0 0 0 -0 -0 -0 -0 -0 -0 -0 0 0
0 0 0 0 0 0 0 0 0 0 0 0 0 0 0 0 0 0 0 0 -0 0 0 0 -0 -0 -0 0 0 0 0 0 -0 0 0 0 0 0
0 0 0 0 -0 -0 -0 0 0 0 0 0 0 0 0 0 0 -0 0 -0 0 0 0 0 0 0 -0 0 0 0 0 0 0 0 0 0 0 0
0 0 0 0 0 0 0 0 0 0 0 0 0 0 0 0 0 0 0 0 0 0 0 0 0 0 0 0 0 0 0 0 0 0 0 0 0 0
0 0 0 0 0 0 0 0 0 0 0 0 0 0 0 0 0 0 0 0 0 0 0 0 0 0 0 0 0 0 0 0 0 0 0 0 0 0
0 0 0 0 0 0 0 0 0 0 0 -0 -0 0 0 0 0 0 0 0 0 0 -0 0 0 0 0 0 0 0 0 0 0 0 0 0 0 0
0 0 0 0 0 0 0 0 0 0 0 0 0 0 0 0 0 0 0 0 0 0 0 0 0 0 0 0 0 0 0 0 0 0 1 0 0 0
0 0 0 0 0 0 0 0 0 0 0 0 0 0 0 0 0 0 0 0 0 0 0 0 0 0 0 0 0 0 0 0 0 0 0 1 0 0
0 0 0 0 0 0 0 0 0 0 -0 0 0 0 0 0 0 0 0 0 0 0 0 0 0 0 0 0 0 0 0 0 0 0 0 0 0 0
0 0 0 0 0 0 0 0 0 0 0 0 0 0 0 0 0 0 0 0 0 0 0 0 0 0 0 0 0 0 0 0 0 0 0 1 0 0
0 0 0 0 0 0 0 0 0 0 0 0 0 0 0 0 0 0 0 0 0 0 0 0 0 0 0 0 0 0 0 0 0 0 0 0 1 1
0 0 0 0 0 0 0 0 0 0 0 0 0 0 0 0 0 -0 -0 0 0 0 0 0 0 0 0 0 0 0 0 0 0 0 0 0 1 0
0 0 0 0 0 0 0 0 0 0 0 0 0 0 0 0 0 0 -0 -0 -0 0 0 0 0 0 0 0 0 0 0 0 1 0 0 -0 0 0
Wind_Speed_500mb
83 79 79 79 78 74 73 73 74 62 60 61 69 60 67 75 63 42 45 31 23 27 25 27 30 30 30 29 25 25 24 23 22 22 21 20 19 16
73 73 74 76 75 70 65 60 66 71 58 63 60 61 55 50 37 41 37 31 35 35 32 33 32 32 30 28 27 27 26 24 23 22 20 16 14 12
71 75 78 74 68 64 68 72 74 63 63 68 66 57 52 58 50 52 34 38 40 37 34 31 30 29 27 29 30 30 28 26 24 23 19 18 15 13
66 68 68 68 69 60 70 74 68 66 58 62 55 52 52 48 42 52 38 49 48 40 29 26 27 27 31 35 31 30 27 27 28 26 24 19 15 11
52 54 58 56 59 60 56 57 58 56 46 70 51 38 36 38 47 61 56 59 55 38 28 24 27 26 24 22 28 31 33 33 31 30 25 20 15 12
46 46 48 47 49 56 52 43 48 51 60 57 55 45 38 41 60 69 57 59 50 45 36 25 23 25 26 29 31 34 35 36 35 31 24 19 15 13
32 27 24 24 25 25 28 27 25 22 46 61 53 47 37 44 62 45 55 52 46 38 27 30 36 36 36 34 33 36 39 39 35 29 24 21 19 17
18 16 14 8 11 15 11 11 8 13 22 33 36 39 41 49 55 61 52 51 44 36 35 27 36 35 35 36 36 38 38 36 32 28 25 24 23 21
15 17 20 15 13 16 16 10 12 8 16 24 32 43 49 49 54 56 49 48 44 48 38 29 31 31 33 33 32 34 35 35 32 29 26 25 27 26
21 17 14 17 18 25 23 19 13 16 19 24 18 31 33 49 50 49 50 43 34 27 45 41 35 35 27 34 34 32 38 36 33 31 33 32 30 29
26 18 15 12 18 26 34 27 19 23 23 21 19 25 29 36 40 45 45 41 39 38 33 47 46 48 45 41 43 38 40 35 38 38 36 35 34 34
31 22 16 10 22 28 33 34 33 28 27 25 21 23 27 30 39 43 46 45 44 38 43 48 44 36 49 33 40 36 39 28 32 36 41 39 38 37
35 24 17 19 23 26 35 34 31 29 29 26 28 26 31 32 38 49 43 39 40 40 42 49 42 36 42 32 38 35 41 32 32 32 36 39 40 39
37 28 22 30 25 31 36 31 26 31 40 31 32 32 34 36 50 54 52 50 34 23 26 58 43 46 43 41 37 37 42 42 34 37 33 29 37 38
43 37 33 34 29 37 39 40 29 33 44 41 36 35 28 27 29 50 55 51 47 35 20 65 51 46 42 43 43 36 46 49 45 45 40 37 34 42
48 41 35 42 33 43 41 43 38 40 42 41 42 40 39 40 46 38 36 36 42 46 53 39 62 51 55 40 33 32 25 44 48 48 55 45 38 42
46 44 42 44 47 51 49 49 46 46 51 46 41 35 38 44 45 49 46 40 40 31 39 59 60 54 54 51 50 45 40 26 39 38 60 50 49 38
46 49 50 51 55 58 58 53 52 53 55 49 49 42 37 37 41 48 51 51 54 48 38 33 34 45 56 70 68 64 56 52 41 48 48 58 57 43
50 53 51 54 56 58 59 54 54 50 46 54 54 52 47 43 40 46 53 58 59 50 48 47 55 53 58 60 49 65 79 83 69 51 57 58 62 48
48 50 52 52 54 53 53 53 51 57 64 53 55 53 50 49 55 51 47 50 55 58 56 53 51 60 64 60 54 45 42 51 79 74 57 52 47 50
46 39 42 42 43 46 46 46 46 48 38 52 59 55 51 46 51 50 48 51 49 60 65 67 67 55 41 50 61 54 49 49 44 51 73 75 68 56
40 40 48 43 46 49 46 50 50 53 53 50 52 57 56 59 61 61 59 49 59 59 51 49 52 59 64 72 69 56 57 67 65 62 62 60 63 67
48 47 49 47 54 46 44 46 47 53 58 62 65 62 66 65 67 63 66 62 59 55 56 65 66 66 67 66 77 72 74 61 61 67 71 71 67 72
Wind_Direction_500mb
259 259 256 258 260 259 259 259 257 251 245 252 259 252 254 257 257 244 228 234 232 226 212 204 200 194 192 192 190 192 194 198 205 215 221 228 232 234
255 253 255 255 263 259 249 253 253 255 253 254 255 261 256 235 214 224 221 226 213 212 204 197 195 191 186 188 191 195 200 206 213 218 214 203 201 206
262 259 259 261 261 249 244 248 255 262 262 271 265 251 232 226 224 221 212 208 200 189 186 188 195 195 196 201 203 206 209 211 203 191 184 188 189 196
262 260 259 259 258 249 249 258 259 266 261 257 236 220 207 208 225 198 208 195 185 179 190 200 206 204 208 210 206 209 205 189 183 181 179 176 174 177
261 259 261 255 252 254 261 268 266 264 261 236 220 213 207 213 219 207 198 196 177 175 178 193 196 194 191 189 191 185 182 182 182 176 177 172 166 159
265 266 258 251 255 263 261 259 264 259 245 232 242 229 207 208 210 196 186 175 169 175 180 196 199 192 188 187 185 183 186 183 179 182 181 187 185 183
263 260 262 259 257 250 241 237 246 258 222 218 223 214 218 197 187 171 174 174 174 177 179 198 198 194 191 191 194 193 186 184 188 193 197 200 206 210
235 230 214 208 181 189 185 181 180 215 204 195 194 192 193 183 183 177 172 174 185 175 201 196 199 197 195 195 192 188 190 194 197 202 209 218 224 226
213 211 206 202 196 195 173 169 174 157 173 184 189 189 186 183 172 174 180 182 183 183 193 200 199 204 203 198 200 200 200 202 206 215 222 227 226 223
197 188 191 202 199 191 188 190 174 165 172 182 186 174 176 176 182 183 182 185 182 196 198 196 210 210 215 214 220 211 201 206 215 226 231 229 228 230
190 186 171 191 211 199 198 194 179 174 175 180 190 196 203 196 196 198 189 185 192 199 200 195 199 217 226 225 224 211 216 214 223 229 233 235 232 231
208 199 224 224 226 210 196 197 193 190 192 200 184 180 189 188 196 196 179 185 186 201 214 210 207 209 221 234 214 203 212 223 229 235 236 233 229 233
210 216 244 258 263 219 199 204 209 206 185 196 185 180 176 180 184 173 184 186 202 216 210 209 210 207 205 196 215 223 223 225 229 235 228 227 232 237
209 219 248 242 235 210 204 207 203 199 181 189 175 181 179 180 182 187 188 195 218 225 223 203 204 200 210 222 212 225 234 235 240 227 216 227 233 235
222 230 233 228 214 201 203 205 201 200 188 181 185 195 189 195 191 204 205 211 226 229 213 199 202 202 210 230 224 232 218 220 228 233 231 226 233 225
225 223 219 208 209 200 204 206 201 196 196 197 200 208 212 205 203 203 204 209 236 248 238 217 214 213 212 224 220 216 228 235 229 225 231 240 240 237
205 208 212 211 202 202 205 212 209 201 206 205 209 203 212 214 215 211 216 221 223 226 229 240 234 226 226 224 227 225 231 245 232 224 218 245 246 244
205 207 206 207 202 204 208 212 215 212 206 206 209 213 220 215 214 213 214 220 222 224 222 228 222 230 236 239 240 239 233 232 240 242 251 243 240 247
211 207 210 209 209 210 209 219 214 201 204 209 212 215 220 219 219 222 221 224 223 219 220 226 227 225 228 237 249 242 243 237 237 243 247 239 239 246
206 213 213 211 212 213 217 214 216 216 215 215 211 216 222 224 233 227 229 227 225 219 228 228 232 235 229 242 249 254 241 238 231 235 234 239 248 257
209 210 215 219 221 215 214 214 216 222 220 222 222 218 219 222 228 231 238 232 234 233 237 235 233 237 245 249 244 246 242 235 238 238 238 242 243 243
220 224 222 224 227 225 225 223 226 219 224 225 228 229 228 230 232 235 235 233 232 235 238 237 239 249 248 239 246 241 245 246 245 246 239 241 241 234
222 223 222 228 224 230 234 223 227 228 232 234 233 237 229 230 240 231 234 235 239 236 241 244 241 243 244 248 247 247 247 242 242 243 239 238 242 239
Wind_Speed_850mb
83 79 79 79 78 74 73 73 74 62 60 61 69 60 67 75 63 42 45 31 23 27 25 27 30 30 30 29 25 25 24 23 22 22 21 20 19 16
73 73 74 76 75 70 65 60 66 71 58 63 60 61 55 50 37 41 37 31 35 35 32 33 32 32 30 28 27 27 26 24 23 22 20 16 14 12
71 75 78 74 68 64 68 72 74 63 63 68 66 57 52 58 50 52 34 38 40 37 34 31 30 29 27 29 30 30 28 26 24 23 19 18 15 13
66 68 68 68 69 60 70 74 68 66 58 62 55 52 52 48 42 52 38 49 48 40 29 26 27 27 31 35 31 30 27 27 28 26 24 19 15 11
52 54 58 56 59 60 56 57 58 56 46 70 51 38 36 38 47 61 56 59 55 38 28 24 27 26 24 22 28 31 33 33 31 30 25 20 15 12
46 46 48 47 49 56 52 43 48 51 60 57 55 45 38 41 60 69 57 59 50 45 36 25 23 25 26 29 31 34 35 36 35 31 24 19 15 13
32 27 24 24 25 25 28 27 25 22 46 61 53 47 37 44 62 45 55 52 46 38 27 30 36 36 36 34 33 36 39 39 35 29 24 21 19 17
18 16 14 8 11 15 11 11 8 13 22 33 36 39 41 49 55 61 52 51 44 36 35 27 36 35 35 36 36 38 38 36 32 28 25 24 23 21
15 17 20 15 13 16 16 10 12 8 16 24 32 43 49 49 54 56 49 48 44 48 38 29 31 31 33 33 32 34 35 35 32 29 26 25 27 26
21 17 14 17 18 25 23 19 13 16 19 24 18 31 33 49 50 49 50 43 34 27 45 41 35 35 27 34 34 32 38 36 33 31 33 32 30 29
26 18 15 12 18 26 34 27 19 23 23 21 19 25 29 36 40 45 45 41 39 38 33 47 46 48 45 41 43 38 40 35 38 38 36 35 34 34
31 22 16 10 22 28 33 34 33 28 27 25 21 23 27 30 39 43 46 45 44 38 43 48 44 36 49 33 40 36 39 28 32 36 41 39 38 37
35 24 17 19 23 26 35 34 31 29 29 26 28 26 31 32 38 49 43 39 40 40 42 49 42 36 42 32 38 35 41 32 32 32 36 39 40 39
37 28 22 30 25 31 36 31 26 31 40 31 32 32 34 36 50 54 52 50 34 23 26 58 43 46 43 41 37 37 42 42 34 37 33 29 37 38
43 37 33 34 29 37 39 40 29 33 44 41 36 35 28 27 29 50 55 51 47 35 20 65 51 46 42 43 43 36 46 49 45 45 40 37 34 42
48 41 35 42 33 43 41 43 38 40 42 41 42 40 39 40 46 38 36 36 42 46 53 39 62 51 55 40 33 32 25 44 48 48 55 45 38 42
46 44 42 44 47 51 49 49 46 46 51 46 41 35 38 44 45 49 46 40 40 31 39 59 60 54 54 51 50 45 40 26 39 38 60 50 49 38
46 49 50 51 55 58 58 53 52 53 55 49 49 42 37 37 41 48 51 51 54 48 38 33 34 45 56 70 68 64 56 52 41 48 48 58 57 43
50 53 51 54 56 58 59 54 54 50 46 54 54 52 47 43 40 46 53 58 59 50 48 47 55 53 58 60 49 65 79 83 69 51 57 58 62 48
48 50 52 52 54 53 53 53 51 57 64 53 55 53 50 49 55 51 47 50 55 58 56 53 51 60 64 60 54 45 42 51 79 74 57 52 47 50
46 39 42 42 43 46 46 46 46 48 38 52 59 55 51 46 51 50 48 51 49 60 65 67 67 55 41 50 61 54 49 49 44 51 73 75 68 56
40 40 48 43 46 49 46 50 50 53 53 50 52 57 56 59 61 61 59 49 59 59 51 49 52 59 64 72 69 56 57 67 65 62 62 60 63 67
48 47 49 47 54 46 44 46 47 53 58 62 65 62 66 65 67 63 66 62 59 55 56 65 66 66 67 66 77 72 74 61 61 67 71 71 67 72
Wind_Direction_850mb
259 259 256 258 260 259 259 259 257 251 245 252 259 252 254 257 257 244 228 234 232 226 212 204 200 194 192 192 190 192 194 198 205 215 221 228 232 234
255 253 255 255 263 259 249 253 253 255 253 254 255 261 256 235 214 224 221 226 213 212 204 197 195 191 186 188 191 195 200 206 213 218 214 203 201 206
262 259 259 261 261 249 244 248 255 262 262 271 265 251 232 226 224 221 212 208 200 189 186 188 195 195 196 201 203 206 209 211 203 191 184 188 189 196
262 260 259 259 258 249 249 258 259 266 261 257 236 220 207 208 225 198 208 195 185 179 190 200 206 204 208 210 206 209 205 189 183 181 179 176 174 177
261 259 261 255 252 254 261 268 266 264 261 236 220 213 207 213 219 207 198 196 177 175 178 193 196 194 191 189 191 185 182 182 182 176 177 172 166 159
265 266 258 251 255 263 261 259 264 259 245 232 242 229 207 208 210 196 186 175 169 175 180 196 199 192 188 187 185 183 186 183 179 182 181 187 185 183
263 260 262 259 257 250 241 237 246 258 222 218 223 214 218 197 187 171 174 174 174 177 179 198 198 194 191 191 194 193 186 184 188 193 197 200 206 210
235 230 214 208 181 189 185 181 180 215 204 195 194 192 193 183 183 177 172 174 185 175 201 196 199 197 195 195 192 188 190 194 197 202 209 218 224 226
213 211 206 202 196 195 173 169 174 157 173 184 189 189 186 183 172 174 180 182 183 183 193 200 199 204 203 198 200 200 200 202 206 215 222 227 226 223
197 188 191 202 199 191 188 190 174 165 172 182 186 174 176 176 182 183 182 185 182 196 198 196 210 210 215 214 220 211 201 206 215 226 231 229 228 230
190 186 171 191 211 199 198 194 179 174 175 180 190 196 203 196 196 198 189 185 192 199 200 195 199 217 226 225 224 211 216 214 223 229 233 235 232 231
208 199 224 224 226 210 196 197 193 190 192 200 184 180 189 188 196 196 179 185 186 201 214 210 207 209 221 234 214 203 212 223 229 235 236 233 229 233
210 216 244 258 263 219 199 204 209 206 185 196 185 180 176 180 184 173 184 186 202 216 210 209 210 207 205 196 215 223 223 225 229 235 228 227 232 237
209 219 248 242 235 210 204 207 203 199 181 189 175 181 179 180 182 187 188 195 218 225 223 203 204 200 210 222 212 225 234 235 240 227 216 227 233 235
222 230 233 228 214 201 203 205 201 200 188 181 185 195 189 195 191 204 205 211 226 229 213 199 202 202 210 230 224 232 218 220 228 233 231 226 233 225
225 223 219 208 209 200 204 206 201 196 196 197 200 208 212 205 203 203 204 209 236 248 238 217 214 213 212 224 220 216 228 235 229 225 231 240 240 237
205 208 212 211 202 202 205 212 209 201 206 205 209 203 212 214 215 211 216 221 223 226 229 240 234 226 226 224 227 225 231 245 232 224 218 245 246 244
205 207 206 207 202 204 208 212 215 212 206 206 209 213 220 215 214 213 214 220 222 224 222 228 222 230 236 239 240 239 233 232 240 242 251 243 240 247
211 207 210 209 209 210 209 219 214 201 204 209 212 215 220 219 219 222 221 224 223 219 220 226 227 225 228 237 249 242 243 237 237 243 247 239 239 246
206 213 213 211 212 213 217 214 216 216 215 215 211 216 222 224 233 227 229 227 225 219 228 228 232 235 229 242 249 254 241 238 231 235 234 239 248 257
209 210 215 219 221 215 214 214 216 222 220 222 222 218 219 222 228 231 238 232 234 233 237 235 233 237 245 249 244 246 242 235 238 238 238 242 243 243
220 224 222 224 227 225 225 223 226 219 224 225 228 229 228 230 232 235 235 233 232 235 238 237 239 249 248 239 246 241 245 246 245 246 239 241 241 234
222 223 222 228 224 230 234 223 227 228 232 234 233 237 229 230 240 231 234 235 239 236 241 244 241 243 244 248 247 247 247 242 242 243 239 238 242 239